[[{"header":{"parameterUnit":"m.s-1","parameterCategory":1,"la1":30.2991,"la2":30.254,"lo1":-89.0895,"lo2":-89.0444,"dy":0.0017,"dx":0.0017,"nx":28,"ny":28,"refTime":"2025-05-31T21:00:00:Z","depth":0,"parameterNumber":2,"parameterNumberName":"U-component_of_WINDS"},"data":[0,0,0,0,0,0,0,0,0,0,0,0,0,0,0,0,0,0,0,0,0,0,0,0,0,0,0,0,0,0,0,0,0,0,0,0,0,0,0,0,0,0,0,0,0,0,0,0,0,0,0,0,0,0,0,0,0,0,-3.2984,-3.2983,0,-3.2926,-3.2925,-3.2925,-3.283,-3.2829,-3.2827,-3.2825,-3.2766,-3.2766,-3.2766,0,0,0,0,0,0,0,0,0,0,0,0,0,-3.3015,-3.3015,-3.2984,-3.2983,-3.2982,-3.2926,-3.2925,-3.2924,-3.2831,-3.2829,-3.2827,-3.2825,-3.2766,-3.2766,-3.2766,0,0,0,0,0,0,0,0,0,0,0,0,0,-3.2984,-3.3015,-3.2984,-3.2929,-3.2923,-3.2926,-3.2925,-3.2924,-3.2831,-3.2829,-3.2826,-3.2824,-3.2766,-3.2766,-3.2767,-3.2819,0,0,-3.2767,-3.2767,0,0,0,0,0,0,0,0,-3.2985,-3.2983,-3.2938,-3.2933,-3.2926,-3.2883,-3.2914,-3.2889,-3.2832,-3.2866,-3.2825,-3.2822,-3.2807,-3.2804,-3.2799,-3.2816,-3.2813,-3.2767,-3.2767,-3.2767,-3.2767,0,0,0,0,0,0,0,-3.2988,-3.2985,-3.2961,-3.2937,-3.293,-3.2908,-3.29,-3.2909,-3.2852,-3.2863,-3.2856,-3.285,-3.2804,-3.2799,-3.2797,-3.2812,-3.2767,-3.2767,-3.2767,-3.2767,-3.2871,-3.2874,0,0,0,0,0,0,-3.2998,-3.2987,-3.2963,-3.2959,-3.295,-3.2909,-3.2901,-3.2899,-3.2852,-3.2842,-3.2853,-3.2846,-3.28,-3.2797,-3.2794,-3.2852,-3.2767,-3.2767,-3.2767,-3.2868,-3.2872,-3.2875,0,0,0,0,0,0,-3.2999,-3.2997,-3.2965,-3.2971,-3.2965,-3.2911,-3.291,-3.29,-3.2894,-3.2844,-3.2833,-3.2858,-3.2798,-3.2794,-3.2813,-3.2849,-3.2767,-3.2767,-3.2865,-3.2869,-3.2873,-3.2968,0,0,0,0,0,0,-3.3,-3.2997,-3.3016,-3.2972,-3.2965,-3.2985,-3.2912,-3.29,-3.2895,-3.2886,-3.2846,-3.2837,-3.2795,-3.2814,-3.2814,-3.2847,-3.2767,-3.2862,-3.2867,-3.2872,-3.2962,-3.2975,-3.2987,0,0,0,0,0,-3.3002,-3.3045,-3.3017,-3.3015,-3.2987,-3.2987,-3.2983,-3.2934,-3.2898,-3.2916,-3.2885,-3.2838,-3.2846,-3.2817,-3.2816,-3.285,-3.2859,-3.2866,-3.2872,-3.2956,-3.2973,-3.2987,0,0,0,0,0,0,-3.3093,-3.3038,-3.3007,-3.3037,-3.3018,-3.2971,-3.2993,-3.2953,-3.2943,-3.2935,-3.2876,-3.2868,-3.2895,-3.2875,-3.2843,-3.2899,-3.2845,-3.2852,-3.291,-3.2925,-3.2938,-3.2941,-3.2767,0,0,0,0,0,-3.3118,-3.3122,-3.3073,-3.3105,-3.3096,-3.3047,-3.3045,-3.3009,-3.2987,-3.2978,-3.2947,-3.2927,-3.2925,-3.2924,-3.2919,-3.296,-3.295,-3.2983,-3.2995,-3.3006,-3.3011,-3.3032,-3.3046,-3.2895,-3.2895,-3.2895,0,0,-3.3167,-3.3137,-3.3143,-3.3122,-3.3103,-3.3109,-3.304,-3.3049,-3.3053,-3.2979,-3.2995,-3.2973,-3.2947,-3.2977,-3.2989,-3.2961,-3.3051,-3.3014,-3.3022,-3.3022,-3.304,-3.3054,-3.3067,-3.2899,-3.2898,-3.2898,0,0,-3.3259,-3.3237,-3.3261,-3.3243,-3.3215,-3.3182,-3.3189,-3.3149,-3.3131,-3.3147,-3.3092,-3.3097,-3.3094,-3.3078,-3.3069,-3.3159,-3.3116,-3.316,-3.3224,-3.3245,-3.3256,-3.3267,-3.3298,-3.331,-3.3166,-3.3166,-3.3166,0,-3.3323,-3.3329,-3.3278,-3.3291,-3.3284,-3.3219,-3.3243,-3.3229,-3.3201,-3.3198,-3.3167,-3.3164,-3.3142,-3.3168,-3.319,-3.3186,-3.3191,-3.3162,-3.3259,-3.3269,-3.3277,-3.3307,-3.3319,-3.3171,-3.3171,-3.317,-3.317,0,-3.3409,-3.3415,-3.3438,-3.3413,-3.3409,-3.3428,-3.3381,-3.3383,-3.3349,-3.332,-3.3338,-3.331,-3.3299,-3.3303,-3.3269,-3.3325,-3.3308,-3.327,-3.3214,-3.3298,-3.3325,-3.3336,-3.3179,-3.3177,-3.3175,-3.3174,0,0,-3.3554,-3.3503,-3.3512,-3.3501,-3.3467,-3.347,-3.3487,-3.3477,-3.348,-3.3464,-3.3477,-3.3478,-3.3442,-3.3433,-3.3398,-3.3416,-3.349,-3.3375,-3.3373,-3.3396,-3.3549,-3.3577,-3.3591,-3.3462,-3.3464,-3.3466,-3.3551,0,-3.3638,-3.3662,-3.3619,-3.3654,-3.3659,-3.3599,-3.3614,-3.3595,-3.357,-3.3571,-3.3542,-3.3544,-3.3497,-3.3491,-3.3507,-3.3477,-3.3519,-3.3471,-3.3473,-3.3474,-3.3479,-3.3605,-3.3634,-3.3716,-3.3561,-3.3563,-3.3564,0,-3.3738,-3.3728,-3.3764,-3.3729,-3.373,-3.3743,-3.3731,-3.3733,-3.3712,-3.3692,-3.3683,-3.3643,-3.3658,-3.3607,-3.3627,-3.3595,-3.3594,-3.3581,-3.3583,-3.3579,-3.3523,-3.3604,-3.3741,-3.3753,-3.358,-3.3579,-3.3578,0,-3.3839,-3.3835,-3.3855,-3.3848,-3.3808,-3.382,-3.3804,-3.378,-3.3777,-3.3767,-3.3765,-3.3757,-3.3752,-3.3748,-3.3707,-3.3673,-3.3732,-3.3678,-3.3716,-3.3717,-3.3729,-3.3728,-3.3866,-3.3732,-3.3731,-3.3731,-3.3731,0,-3.3936,-3.396,-3.39,-3.3913,-3.3939,-3.389,-3.3917,-3.3895,-3.3875,-3.3883,-3.3832,-3.3841,-3.3787,-3.379,-3.3759,-3.3781,-3.3779,-3.3764,-3.3755,-3.3767,-3.3769,-3.3764,-3.3757,-3.3734,-3.3734,-3.3733,-3.3732,0,-3.4052,-3.4013,-3.4032,-3.3994,-3.3985,-3.4006,-3.3973,-3.3984,-3.3957,-3.3968,-3.3968,-3.3925,-3.3926,-3.3886,-3.3879,-3.3858,-3.3893,-3.3875,-3.39,-3.3894,-3.3934,-3.3931,-3.4072,-3.4088,-3.3945,-3.3947,-3.3948,0,-3.4115,-3.4132,-3.4097,-3.4099,-3.4086,-3.4089,-3.4087,-3.404,-3.4039,-3.4018,-3.4032,-3.4029,-3.4025,-3.4031,-3.3999,-3.3994,-3.3975,-3.4025,-3.3973,-3.3986,-3.3974,-3.3973,-3.3975,-3.4035,-3.4036,-3.4038,-3.4039,0,-3.4232,-3.4212,-3.421,-3.4202,-3.4201,-3.4192,-3.418,-3.4185,-3.4134,-3.4136,-3.4138,-3.4135,-3.4129,-3.4127,-3.4117,-3.4102,-3.4062,-3.4056,-3.4065,-3.4076,-3.409,-3.4083,-3.3928,-3.4052,-3.4051,-3.405,-3.4049,-3.4049,-3.4322,-3.4335,-3.4313,-3.4313,-3.4299,-3.429,-3.4298,-3.4273,-3.4273,-3.4265,-3.4238,-3.4244,-3.4225,-3.4207,-3.4195,-3.42,-3.4175,-3.4188,-3.4191,-3.4194,-3.4201,-3.4092,-3.4198,-3.4198,-3.4198,-3.4197,-3.4197,0,-3.4435,-3.4419,-3.4419,-3.4405,-3.4405,-3.437,-3.4355,-3.4358,-3.4364,-3.4349,-3.4346,-3.4349,-3.4348,-3.4318,-3.4314,-3.4324,-3.4306,-3.4324,-3.4322,-3.4319,-3.4224,-3.4217,-3.4339,-3.4339,-3.4339,-3.4338,-3.4338,-3.4338,-3.4494,-3.4514,-3.4493,-3.4507,-3.449,-3.4495,-3.449,-3.4482,-3.447,-3.4475,-3.4474,-3.4455,-3.4434,-3.4428,-3.4427,-3.4418,-3.4418,-3.4443,-3.4428,-3.4339,-3.4325,-3.4312,-3.4305,-3.4444,-3.4444,-3.4522,-3.4523,-3.4523]},{"header":{"parameterUnit":"m.s-1","parameterCategory":1,"la1":30.2991,"la2":30.254,"lo1":-89.0895,"lo2":-89.0444,"dy":0.0017,"dx":0.0017,"nx":28,"ny":28,"refTime":"2025-05-31T21:00:00:Z","depth":0,"parameterNumber":3,"parameterNumberName":"V-component_of_WINDS"},"data":[0,0,0,0,0,0,0,0,0,0,0,0,0,0,0,0,0,0,0,0,0,0,0,0,0,0,0,0,0,0,0,0,0,0,0,0,0,0,0,0,0,0,0,0,0,0,0,0,0,0,0,0,0,0,0,0,0,0,3.0905,3.0906,0,3.0931,3.0931,3.0932,3.0989,3.0991,3.0992,3.0993,3.1014,3.1014,3.1013,0,0,0,0,0,0,0,0,0,0,0,0,0,3.0903,3.0902,3.0905,3.0906,3.0906,3.0931,3.0931,3.0932,3.0989,3.0991,3.0992,3.0993,3.1014,3.1014,3.1013,0,0,0,0,0,0,0,0,0,0,0,0,0,3.0913,3.0902,3.0905,3.0938,3.0941,3.0931,3.0931,3.0932,3.0989,3.0991,3.0992,3.0994,3.1015,3.1014,3.1013,3.0972,0,0,3.101,3.101,0,0,0,0,0,0,0,0,3.0913,3.0913,3.0933,3.0936,3.0939,3.0959,3.0938,3.0945,3.0988,3.097,3.0993,3.0995,3.0994,3.0995,3.0996,3.0973,3.0974,3.101,3.101,3.1009,3.1009,0,0,0,0,0,0,0,3.0912,3.0913,3.0915,3.0933,3.0937,3.095,3.0954,3.094,3.0972,3.0972,3.0977,3.0979,3.0996,3.0996,3.0997,3.0974,3.101,3.101,3.1009,3.1009,3.0919,3.0918,0,0,0,0,0,0,3.0907,3.0912,3.0915,3.0916,3.093,3.0949,3.0953,3.0951,3.0972,3.0977,3.0977,3.0982,3.0997,3.0997,3.0998,3.0951,3.1009,3.1009,3.1008,3.0921,3.0919,3.0917,0,0,0,0,0,0,3.0907,3.0907,3.0914,3.0915,3.0917,3.0947,3.0944,3.095,3.0951,3.0976,3.0982,3.0972,3.0998,3.0999,3.0978,3.0953,3.1008,3.1008,3.0923,3.0921,3.0918,3.0858,0,0,0,0,0,0,3.0907,3.0906,3.0892,3.0915,3.0917,3.0895,3.0943,3.0949,3.095,3.0955,3.0973,3.0977,3.1,3.0979,3.0977,3.0953,3.1007,3.0926,3.0922,3.0919,3.0862,3.0853,3.0846,0,0,0,0,0,3.0906,3.0873,3.0891,3.0891,3.0899,3.0893,3.0894,3.0923,3.0947,3.0932,3.0949,3.0976,3.0956,3.0977,3.0975,3.095,3.0928,3.0923,3.0919,3.0866,3.0855,3.0846,0,0,0,0,0,0,3.0844,3.0876,3.0897,3.087,3.0879,3.0903,3.0885,3.091,3.0911,3.0916,3.095,3.0953,3.0928,3.0937,3.0959,3.0911,3.0946,3.0942,3.0906,3.0896,3.0888,3.0886,3.1006,0,0,0,0,0,3.0828,3.0821,3.0849,3.0823,3.0826,3.0855,3.0853,3.0874,3.0884,3.0888,3.0903,3.091,3.0905,3.0901,3.0899,3.0864,3.0869,3.0846,3.0838,3.0831,3.0826,3.0809,3.0799,3.0903,3.0903,3.0903,0,0,3.0793,3.081,3.0803,3.0811,3.082,3.0812,3.0857,3.0846,3.084,3.0886,3.0868,3.0879,3.0889,3.0862,3.0851,3.0869,3.0799,3.0826,3.082,3.0819,3.0804,3.0794,3.0785,3.09,3.0901,3.0901,0,0,3.0725,3.0737,3.0717,3.0726,3.0741,3.076,3.0755,3.0776,3.0786,3.0769,3.0803,3.0796,3.0787,3.0793,3.0795,3.0732,3.0757,3.0729,3.0686,3.0669,3.0661,3.0654,3.0631,3.0622,3.0725,3.0725,3.0725,0,3.068,3.067,3.0703,3.0691,3.0693,3.0735,3.0715,3.0721,3.0733,3.0733,3.0754,3.0744,3.0754,3.0729,3.0714,3.0714,3.0709,3.0727,3.066,3.0653,3.0647,3.0625,3.0617,3.0721,3.0722,3.0722,3.0722,0,3.0613,3.0606,3.0588,3.06,3.06,3.0583,3.0613,3.0609,3.063,3.0647,3.063,3.0643,3.0644,3.064,3.066,3.0618,3.0629,3.0654,3.0689,3.0633,3.0613,3.0605,3.0716,3.0718,3.0719,3.0719,0,0,3.0506,3.0539,3.0531,3.0538,3.0558,3.0552,3.0537,3.054,3.0536,3.0542,3.053,3.0523,3.0547,3.0549,3.057,3.0555,3.0504,3.0582,3.0583,3.0567,3.0458,3.0439,3.0429,3.0521,3.052,3.0519,3.0457,0,3.0443,3.0421,3.0451,3.0421,3.0415,3.0456,3.0443,3.0453,3.0469,3.0464,3.0481,3.0475,3.0507,3.0509,3.0496,3.0513,3.0482,3.0518,3.0509,3.0508,3.0505,3.0419,3.0398,3.034,3.045,3.0449,3.0448,0,3.0366,3.0372,3.0342,3.0365,3.0363,3.0351,3.0356,3.0352,3.0364,3.0377,3.038,3.0406,3.0392,3.0427,3.0408,3.0431,3.043,3.0437,3.0436,3.0436,3.0474,3.0416,3.0322,3.0313,3.0436,3.0437,3.0438,0,3.0291,3.0291,3.0273,3.0278,3.0303,3.0294,3.0304,3.0318,3.0318,3.0322,3.0323,3.0324,3.0325,3.0326,3.0351,3.0375,3.0329,3.0366,3.0338,3.0337,3.0326,3.0326,3.023,3.0325,3.0325,3.0325,3.0326,0,3.0217,3.0197,3.024,3.0229,3.0208,3.0243,3.0221,3.0235,3.0247,3.0239,3.0274,3.0265,3.03,3.0295,3.0315,3.0296,3.0296,3.0305,3.031,3.0301,3.03,3.03,3.0305,3.0323,3.0324,3.0324,3.0325,0,3.013,3.0158,3.0141,3.0168,3.0174,3.0157,3.0179,3.017,3.0188,3.0178,3.0177,3.0206,3.0201,3.0228,3.0227,3.0241,3.0212,3.0224,3.0208,3.0212,3.0182,3.0185,3.0082,3.0071,3.0174,3.0173,3.0172,0,3.008,3.0067,3.0092,3.009,3.0099,3.0095,3.0096,3.0129,3.0128,3.0141,3.013,3.0129,3.013,3.0122,3.0141,3.0142,3.0154,3.0118,3.0154,3.0146,3.0154,3.0154,3.0153,3.0111,3.0109,3.0108,3.0107,0,2.999,3.0005,3.0006,3.0012,3.0012,3.0018,3.0025,3.0021,3.0057,3.0054,3.0052,3.0052,3.0054,3.0052,3.0057,3.0066,3.0092,3.0096,3.009,3.008,3.0072,3.0076,3.0188,3.0098,3.0099,3.01,3.01,3.0101,2.9921,2.9911,2.9927,2.9927,2.9937,2.9943,2.9936,2.9955,2.9953,2.9958,2.9977,2.9971,2.9984,2.9993,3.0,2.9995,3.0012,3.0002,3.0,2.9997,2.9991,3.0073,2.9995,2.9996,2.9996,2.9996,2.9996,0,2.9833,2.9846,2.9845,2.9856,2.9856,2.9883,2.9893,2.989,2.9885,2.9895,2.9896,2.9893,2.9892,2.9912,2.9914,2.9906,2.9918,2.9905,2.9905,2.9907,2.9976,2.9982,2.9895,2.9895,2.9895,2.9895,2.9895,2.9895,2.9787,2.9771,2.9788,2.9778,2.9791,2.9786,2.979,2.9796,2.9805,2.98,2.98,2.9814,2.9828,2.9831,2.9831,2.9837,2.9836,2.9819,2.9828,2.9892,2.9902,2.9911,2.9917,2.9818,2.9818,2.976,2.9759,2.9759]}]]